{"data":{"norad_id":66727,"intl_designator":"2025-276BP","name":"FLOCK 4H-24","alt_names":[],"object_type":"PAYLOAD","status":"ACTIVE","operator":null,"country":"US","launch_date":"2025-11-28","launch_site_code":"AFWTR","launch_vehicle":null,"mission":null,"orbit_class":"UNKNOWN","rcs_meters":null,"size_class":null,"mass_kg":null,"dimensions":null,"purposes":["earth_obs"],"wikipedia_slug":null,"has_3d_model":false,"image_url":null,"decayed_at":null,"tle_current":{"epoch":"2026-05-25T02:28:44.454720Z","epoch_age_seconds":76598,"freshness":"FRESH","line1":"1 66727U 25276BP  26145.10329230  .00005674  00000+0  27010-3 0  9992","line2":"2 66727  97.4240 219.0937 0005643  95.3213 264.8666 15.19533517 26914","mean_motion":15.19533517,"eccentricity":0.0005643,"inclination_deg":97.424,"raan_deg":219.0937,"arg_perigee_deg":95.3213,"mean_anomaly_deg":264.8666,"bstar":0.0002701,"rev_number":2691,"period_min":94.765925456056,"perigee_km":503.36399721278,"apogee_km":511.13484432726,"semimajor_km":6885.38642077,"source":"CELESTRAK","updated_at":"2026-05-25T13:38:13.370840Z"}}}